Torna al catalogo

KUIPER-00603

AttivoComunicazioniLEO
NORAD 69287·PAYLOAD·🇺🇸 United States

Lanciato May 29, 2026 da Vandenberg Space Force Base

Loading…

Prossimi Passaggi (prossime 24 ore)

TLE

AggiornatoSource: CelesTrak SupGP

Epoca: Sep 15, 2026, 04:10 UTC

1 69287C 26118W   26258.17407407 -.00013009  00000+0 -17029-2 0  2586
2 69287  51.9046 357.7497 0000490  94.3939 153.6454 14.79943901    17

Traccia KUIPER-00603 in tempo reale con AllMySat

Download on the App Store